Regional Weather Roundup
Issued by NWS Wakefield, VA

Home | Current Version | Previous Version | Graphics & Text | Print | Product List | Glossary On
Versions: 1 2 3 4 5 6 7 8 9 10 11 12 13 14 15 16 17 18 19 20 21 22 23 24 25 26 27 28 29 30 31 32 33 34 35 36 37 38 39 40 41 42 43 44 45 46 47 48 49 50
000
ASUS41 KAKQ 270414
RWRAKQ

REGIONAL WEATHER ROUNDUP
NATIONAL WEATHER SERVICE WAKEFIELD VA
1200 AM EDT MON APR 27 2015

Note: "fair" indicates few or no clouds below 12,000 feet with no
significant weather and/or obstructions to visibility. * = Denotes
station may not report precipitation (e.g., rain,snow,etc.),
thunder or fog.

VAZ042-051-052>054-056-270500-
NORTHERN VIRGINIA

CITY           SKY/WX    TMP DP  RH WIND       PRES   REMARKS
WASH NATIONAL  PTCLDY    54  38  54 CALM      29.74R
DULLES         MOCLDY    50  38  63 N5        29.74R
FORT BELVOIR   PTCLDY    43  38  83 CALM      29.73S
QUANTICO       PTCLDY    46  39  76 NW9       29.74S
FREDERICKSBRG* CLEAR     46  41  85 CALM      29.73S
STAFFORD*      CLEAR     38  32  77 CALM      29.77S
WARRENTON      PTCLDY    40  39  97 CALM      29.73F
CULPEPER*      PTCLDY    43  39  87 CALM      29.74S
MANASSAS*      PTCLDY    43  43 100 CALM      29.74S
LEESBURG*      CLOUDY    48  37  66 N7        29.75S
WINCHESTER     MOCLDY    48  30  49 NW6       29.75R
FRONT ROYAL*   CLOUDY    48  36  61 CALM      29.73S
LURAY*         MOCLDY    46  41  81 E3        29.74S
$$

VAZ048-049-060>072-079>083-270500-
CENTRAL AND SOUTH CENTRAL VIRGINIA

CITY           SKY/WX    TMP DP  RH WIND       PRES   REMARKS
RICHMOND       CLEAR     49  40  71 SW3       29.74F
CHESTERFIELD*  FAIR      45  32  61 CALM      29.76S
PETERSBURG*    CLEAR     43  42  97 CALM      29.75F
HANOVER        CLEAR     43  42  97 CALM      29.75F
TAPPAHANNOCK*  CLEAR     42  38  85 CALM      29.74F
QUINTON*       FAIR      43  42  95 CALM      29.74S
CHARLOTTSVILLE CLEAR     48  39  71 SW3       29.74F
GORDONSVILLE*  FAIR      39  38  93 CALM      29.73F
ORANGE*        PTCLDY    43  41  93 CALM      29.75F
LOUISA*        CLEAR     43  39  87 W3        29.73F
BUMPASS*       FAIR      43  40  89 MISG      29.74F
FARMVILLE*     CLEAR     48  46  93 CALM      29.73F
CREWE*         FAIR      43  41  95 CALM      29.74F
FORT PICKETT*  FAIR      42  42  97 W5        29.74F
CHASE CITY*    FAIR      47  47 100 CALM      29.76S
CLARKSVILLE*   MOCLDY    46  43  87 CALM      29.75F
SOUTH HILL*    PTCLDY    46  43  90 CALM      29.80F
LAWRENCEVILLE* FAIR      44  44  99 CALM      29.74F
EMPORIA*       FOG       39  39 100 CALM      29.76S VSB<1/4
$$

VAZ088>098-270500-
SOUTHEAST VIRGINIA

CITY           SKY/WX    TMP DP  RH WIND       PRES   REMARKS
NORFOLK        PTCLDY    49  41  74 CALM      29.74S
VIRGINIA BEACH PTCLDY    47  41  80 CALM      29.73F
NORFOLK NAVAL  PTCLDY    51  43  74 E3        29.75F
WEST POINT*    CLEAR     45  42  89 CALM      29.75S
SALUDA*        FAIR      44  40  87 CALM      29.73F
NEWPORT NEWS   CLEAR     45  41  86 CALM      29.74F
LANGLEY AFB    CLEAR     44  42  90 W2        29.73F
FORT EUSTIS    CLEAR     47  46  95 NE2       29.72F
WILLIAMSBURG*  CLEAR     48  46  93 CALM      29.75F
HR EXEC AP*    FAIR      39  36  87 CALM      29.75F
FRANKLIN*      PTCLDY    44  43  97 CALM      29.75F
WAKEFIELD      CLEAR     45  42  89 CALM      29.74F
$$

VAZ020-022-025-037-045-270500-
WEST CENTRAL AND SOUTHWEST VIRGINIA

CITY           SKY/WX    TMP DP  RH WIND       PRES   REMARKS
STAUNTON*      PTCLDY    45  38  77 CALM      29.77F
WAYNESBORO*    FAIR      45  41  85 CALM      29.76S
HOT SPRINGS VA CLEAR     41  39  93 NW5       29.75F
LYNCHBURG      CLEAR     41  41 100 CALM      29.77F
DANVILLE       PTCLDY    45  42  89 SW5       29.78S
SOUTH BOSTON*  FAIR      44  43  96 CALM      29.77S
MARTINSVILLE   CLOUDY    46  46 100 CALM      29.80S
ROANOKE        PTCLDY    47  42  83 NW6       29.79F
BLACKSBURG     CLEAR     39  38  95 CALM      29.82S
DUBLIN*        CLEAR     45  42  91 W7        29.81S
MARION*        MOCLDY    44  41  90 W7        29.84S
HILLSVILLE*    PTCLDY    42  40  93 W6        29.79F
RICHLANDS*     CLOUDY    43  38  84 W5        29.83S
WISE*          CLEAR     41  41 100 CALM      29.84S
ABINGDON*      CLOUDY    49  44  84 CALM      29.83S
$$

MDZ021>025-VAZ099-100-270500-
SOUTHERN MARYLAND AND THE DELMARVA PENINSULA

CITY           SKY/WX    TMP DP  RH WIND       PRES   REMARKS
PATUXENT RIVER CLEAR     41  38  89 SW5       29.73S
BAY BRIDGE APT   N/A    N/A N/A N/A S5        29.73S
LEONARDTOWN    CLEAR     45  36  70 CALM      29.74S
DOVER          CLEAR     42  34  74 VRB3      29.69R
GEORGETOWN     CLEAR     45  36  70 SW5       29.73S
EASTON         CLEAR     49  40  70 CALM      29.76S
CAMBRIDGE      CLEAR     45  37  76 CALM      29.72F
SALISBURY      CLEAR     40  37  89 CALM      29.73S
OCEAN CITY     FAIR      39  38  96 CALM      29.73S
WALLOPS ISLAND FAIR      44  40  85 S3        29.74S
ACCOMACK*      CLEAR     41  37  87 CALM      29.74S
$$

NCZ012>017-030>032-270500-
NORTH CENTRAL AND EASTERN NORTH CAROLINA

CITY           SKY/WX    TMP DP  RH WIND       PRES   REMARKS
ROANOKE RAPIDS CLOUDY    45  45 100 CALM      29.75S
RALEIGH        MOCLDY    46  44  93 CALM      29.78S
ELIZABETH CITY PTCLDY    50  40  68 NE7       29.73F
AHOSKIE*         N/A     45  44  97 CALM      29.76S FOG
EDENTON*       PTCLDY    46  44  95 CALM      29.75R FOG
CURRITUCK*     PTCLDY    48  42  82 CALM      29.75F
KILL DEVIL HLS PTCLDY    51  35  54 N6        29.71F
MANTEO         PTCLDY    52  34  50 NE10      29.72F
CAPE HATTERAS  MOCLDY    51  43  74 NE10G23   29.72S
TARBORO*       FAIR      46  45  95 CALM      29.78R FOG
GOLDSBORO      CLOUDY    51  48  91 NW1       29.75F
WASHINGTON     PTCLDY    47  45  95 CALM      29.76F
GREENVILLE     PTCLDY    48  48 100 CALM      29.80R FOG
NEW BERN       CLOUDY    51  47  86 N3        29.77F
WILMINGTON     LGT RAIN  53  48  83 N5        29.78R
$$

VAZ048-270500-
ELSEWHERE

CITY           SKY/WX    TMP DP  RH WIND       PRES   REMARKS
HARRISBURG PA  PTCLDY    45  28  51 NW6       29.76R
BALTIMORE      CLEAR     41  33  73 NW5       29.74R
ANNAPOLIS      CLEAR     48  41  76 NW3       29.73R
ANDREWS AFB    CLEAR     42  38  84 CALM      29.72S
PHILADELPHIA   PTCLDY    53  29  39 N5        29.75R
HENDERSON NC   CLOUDY    47  42  84 CALM      29.77R
GREENSBORO     MOCLDY    47  44  90 SW3       29.78R
ROCKY MOUNT    MOCLDY    49  46  90 CALM      29.77R
$$

VAZ100-270500-
MARINE

STATION/POSITION TIME  TEMP    WIND        PRES    WAVE   SWELL
                       AIR SEA DIR/SP/G            HT/PER HT/PER
                 (UTC) (F)     (DEG/KT/KT) (MB)    (FT/S) (FT/S)
BRANDYWINE LGT   0300   50 52  210/ 13/ 14 1006.4S
CAPE MAY NJ      0300   49 55  200/  7/  9 1006.0S
LEWES DE         0300   46 53  220/  5/  7 1006.3S
15NM E FENWICK I 0350   47 47              1006.2F   2/ 7
OCEAN-CITY-INLET 0300   47 52  240/  3/  3 1006.4F
WACHAPREAGUE VA  0300   48 58   CALM  /  2 1007.2R
THOMAS POINT MD  0400   53 53  210/  5/  5 1007.2R
GOOSES REEF MD   0400   53 53  180/  6/  8   N/A     1/ 2
COVE POINT MD    0300   53     160/  6/  8 1007.2R
SOLOMONS ISLAND  0300      56                N/A
BISHOPS HEAD MD  0300   53 57  150/ 10/ 11 1006.2R
PINEY POINT MD   0300          240/  5/  6   N/A
CAMBRIDGE MD     0300   49 59  190/  3/  4 1006.5R
LEWISETTA VA     0300   51 58              1006.6R
RAPPAHANNOCK LGT 0300          140/  7/  7 1007.7R
YORK RVR RNG VA  0300   55     220/  6/  6 1006.5R
YORKTOWN VA      0300   51 60  200/  5/  6 1006.8R
JAMESTOWN VA     0400   52 63  230/  6/  6 1006.0F
DOMINION TERM VA 0300   55     220/  6/  8 1007.2R
KIPTOPEKE VA     0300      61  120/  3/  3   N/A
CHES BAY BRIDGE  0300   53 58  150/  5/  6 1006.7S
CAPE HENRY VA    0300   52     140/  5/  6 1006.0R
CHESAPEAKE LGHT  0300   51      70/  4/  4 1008.1R
WILLOUBY STN VA  0300   54     200/  6/  7 1007.7R
S CRANEY ISL VA  0300          240/  4/  5 1007.2R
CAPE HENRY BUOY  0328      51                N/A     3/ 6
OFFSHORE WE BUOY 0311      50                N/A     3/ 5   3/ 5
64NM E OF VA BCH 0350   54 55  360/ 10/ 12 1006.1S   5/ 6   3/ 6
DUCK PIER NC     0300   53 55   20/  8/ 10 1006.3R
44056 DUCK FRF   0311      53                N/A     4/ 6
OREGON INLET NC  0300   51 55  350/ 10/ 14 1006.6F
HATTERAS NC      0300   56 61   10/ 15/ 22 1005.4F
DIAMOND SHLS NC  0350   58 77   10/ 19/ 23 1005.8R   7/10   5/10
CAPE LOOKOUT NC  0400   54     360/  8/  9 1006.9R
$$


USA.gov is the U.S. government's official web portal to all federal, state and local government web resources and services.